Other Public Products
Issued by NWS Grand Forks, ND

Home | Current Version | Previous Version | Graphics & Text | Print | Product List | Glossary On
Versions: 1 2 3 4 5 6 7 8 9 10 11 12 13 14 15 16 17 18 19 20 21 22 23 24 25 26 27 28 29 30 31 32 33 34 35 36 37 38 39 40 41 42 43 44 45 46 47 48 49 50
000
FPUS83 KFGF 211410
OPUFGF
PRAIRIE TO PINES WEATHER ROUNDUP
NATIONAL WEATHER SERVICE EASTERN NORTH DAKOTA/GRAND FORKS ND
900 AM CDT THU AUG 21 2014

 **SATELLITE DATA USED TO AUGMENT SKY COVER AT AUTOMATED STATIONS**
 *****  WEATHER ACROSS EASTERN NORTH DAKOTA  *****

CITY           SKY/WX    TMP DP  RH WIND       PRES   REMARKS
GRAND FORKS    CLOUDY    70  66  87 E7        29.76F
GRAND FORKS AF CLOUDY    69  69  98 E7        29.77F
GRAND CITY NWS   N/A     52 N/A N/A E2          N/A
BUXTON         NOT AVBL
DEVILS LAKE    CLOUDY    70  63  78 NE6       29.77R
FARGO          CLOUDY    73  67  81 SE5       29.75R
WAHPETON ARPT  PTSUNNY   70  64  83 S7        29.75S
$$

 *****  WEATHER ACROSS CENTRAL AND WESTERN NORTH DAKOTA  *****

CITY           SKY/WX    TMP DP  RH WIND       PRES   REMARKS
JAMESTOWN      CLOUDY    70  67  90 S5        29.76R
BISMARCK       CLOUDY    67  64  90 NW9       29.83R
MINOT          CLOUDY    64  62  93 NW8       29.83R FOG
MINOT AFB      CLOUDY    64  64 100 NW7       29.83R FOG
GARRISON         N/A     67  65  93 NW7       29.83R
WILLISTON      SUNNY     61  59  93 CALM      29.90R
DICKINSON      SUNNY     62  60  93 NW8       29.89R
HETTINGER      MOSUNNY   64  59  83 NW7       29.92R
$$

 *****  OTHER OBSERVATIONS NORTHEAST NORTH DAKOTA  *****

CITY           SKY/WX    TMP DP  RH WIND       PRES   REMARKS
WALHALLA         N/A     68  68 100 SE6       29.78R
LANGDON        CLOUDY    66  64  94 E7        29.80R FOG
CAVALIER       CLOUDY    68  64  88 E6        29.78F
GRAFTON        PTSUNNY   68  66  94 E7        29.78S
CANDO          CLOUDY    68  66  94 SE3       29.79R
FORT TOTTEN      N/A     69  67  94 SE5       29.95S
ROLLA          CLOUDY    64  64 100 N6        29.83R FOG
RUGBY          PTSUNNY   64  64 100 N8        29.80R
 ***** THE ABOVE OBSERVATIONS ARE NON NWS ARE NOT QUALITY
        CONTROLLED AND MAY MIS-REPORT RAIN FOR SNOW...
$$

 *****  OTHER OBSERVATIONS SOUTHEAST NORTH DAKOTA *****

CITY           SKY/WX    TMP DP  RH WIND       PRES   REMARKS
COOPERSTOWN    NOT AVBL
VALLEY CITY    CLOUDY    70  70 100 E3        29.75F
OAKES          NOT AVBL
GWINNER        MOSUNNY   73  73 100 S10       29.76R
SHEYENNE NWR     N/A     72  69  90 SE7       29.95S
BUFFALO        NOT AVBL
WYNDMERE       NOT AVBL
 ***** THE ABOVE OBSERVATIONS ARE NON NWS ARE NOT QUALITY
       CONTROLLED AND MAY MIS-REPORT RAIN FOR SNOW...
$$

  *****  WEATHER ACROSS NORTHERN MINNESOTA  *****

CITY           SKY/WX    TMP DP  RH WIND       PRES   REMARKS
FLAG ISLAND    CLOUDY    66  61  82 SE13      29.85S
WARROAD        CLOUDY    63  59  88 SE9       29.85S
ROSEAU         CLOUDY    64  59  82 E5        29.83S
HALLOCK        PTSUNNY   70  64  83 E5        29.79S
THF RVR FALLS  CLOUDY    66  63  88 E9        29.80S
HALSTAD          N/A     71  66  84 E6          N/A
FOSSTON        PTSUNNY   66  63  88 SE12      29.82R
BAUDETTE       CLOUDY    61  59  93 SE10G20   29.86F
WASKISH        CLOUDY    63  61  94 CALM      29.85S
CROOKSTON      PTSUNNY   70  64  83 SE10      29.79S
$$
  *****  WEATHER ACROSS CENTRAL AND WEST MINNESOTA  *****

CITY           SKY/WX    TMP DP  RH WIND       PRES   REMARKS
BEMIDJI        CLOUDY    64  61  90 E8        29.83R
PARK RAPIDS    CLOUDY    67  65  93 E8        29.82R
WADENA         CLOUDY    66  64  94 E5        29.80R
DETROIT LAKES  PTSUNNY   70  64  83 E7        29.80S
MOORHEAD       MOSUNNY   73  72  94 E3        29.76S
FERGUS FALLS   MOSUNNY   73  68  83 SE9       29.76R
ELBOW LAKE     FAIR      72  67  84 SE9       29.76R
MORRIS MN      SUNNY     72  70  94 SE10      29.74S
STAPLES        CLOUDY    64  64 100 CALM      29.79R
WHEATON        SUNNY     68  66  94 SE9       29.75F
$$
  *****  WEATHER ELSEWHERE ACROSS MINNESOTA  *****

CITY           SKY/WX    TMP DP  RH WIND       PRES   REMARKS
DULUTH         DRZL/FOG  61  59  93 E13       29.90F VSB 1/2
INTRNTL FALLS  CLOUDY    61  59  93 SE8       29.90F
ELY            PTSUNNY   63  57  82 SE9       29.93F
CLOQUET        DRIZZLE   61  59  94 E9        29.88F
BRAINERD       LGT RAIN  66  65  96 SE9       29.77S
HIBBING        CLOUDY    63  58  83 E8        29.88F
ALEXANDRIA     MOSUNNY   70  66  87 SE13      29.78R
SAINT CLOUD    PTSUNNY   72  68  87 E7        29.77S
MINNEAPOLIS    CLOUDY    71  70  96 SE10      29.79F
$$

  *****  WEATHER ACROSS SOUTH DAKOTA  *****

CITY           SKY/WX    TMP DP  RH WIND       PRES   REMARKS
SIOUX FALLS    CLOUDY    77  70  79 SW7       29.77S
BROOKINGS      NOT AVBL
WATERTOWN      SUNNY     70  67  90 SW6       29.77S
HURON          SUNNY     72  66  81 N3        29.77S
SISSETON         N/A     71  69  93 S13       29.73S
ABERDEEN       SUNNY     67  65  93 SW7       29.77S
MITCHELL       CLOUDY    72  69  90 N9        29.78R
PIERRE         MOSUNNY   67  65  93 N7        29.83R
MOBRIDGE       MOSUNNY   68  66  93 NW10      29.81R
RAPID CITY     PTSUNNY   68  61  78 CALM      29.95R
$$

  *****  SOME WEATHER IN NEARBY STATES *****

CITY           SKY/WX    TMP DP  RH WIND       PRES   REMARKS
GLASGOW MT     PTSUNNY   62  60  93 CALM      29.94S THUNDER
GREAT FALLS MT CLOUDY    54  53  97 NW10      30.07R
CHEYENNE WY    SUNNY     65  45  48 W12       30.13S
SCOTTSBLUFF NE SUNNY     64  52  64 NW10      30.00R
OMAHA NE       CLOUDY    76  69  79 NE5       29.81R
DES MOINES IA  CLOUDY    79  70  74 SW10      29.83S
DAVENPORT IA   CLOUDY    73  70  90 E8        29.93R
CHICAGO IL     LGT RAIN  72  68  87 CALM      29.96F FOG
EAU CLAIRE WI  RAIN      67  67 100 S8        29.86F FOG
LA CROSSE WI   LGT RAIN  71  68  90 SW9       29.94R
$$

  *****  SOME NATIONAL WEATHER *****

CITY           SKY/WX    TMP DP  RH WIND       PRES   REMARKS
LA GUARDIA NY  PTSUNNY   76  62  62 CALM      30.06S
RALEIGH NC     MOSUNNY   82  71  69 NE3       30.08S
ATLANTA GA     MOSUNNY   78  68  71 NW7       30.16R
NEW ORLEANS LA PTSUNNY   86  76  71 CALM      30.13S HX  96
OKLAHOMA CITY  SUNNY     81  70  69 S17       29.98S
ALBUQUERQUE NM MOSUNNY   70  46  42 CALM      30.17R
SALT LAKE CITY CLOUDY    68  51  54 SE9       30.04R
LOS ANGELES CA MOCLDY    68  60  75 W5        29.94R
BOISE ID       SUNNY     59  43  55 SE6       29.98R
SEATTLE WA     MOCLDY    53  50  89 S3        30.04S
$$

*** WEATHER ACROSS MANITOBA...SASKATCHEWAN AND ONTARIO ***
                ***ONTARIO***

CITY           SKY/WX    TMP DP  RH WIND       PRES   REMARKS
GERALDTON      CLOUDY    63  61  94 SE3       30.01S FOG
THUNDER BAY    PTSUNNY   64  61  88 E7        29.97F
SIOUX LOOKOUT  PTSUNNY   66  61  82 S5        29.94F
TORONTO        PTSUNNY   72  66  83 W6        29.96S
BIG TROUT LK   SUNNY     68  59  73 SE13      29.96S
PICKLE LAKE    CLOUDY    63  59  88 S3        29.99R
DRYDEN         SUNNY     64  61  88 S7        29.93F
KENORA         MOSUNNY   64  61  88 SE8       29.90S
$$
                *** MANITOBA***

CITY           SKY/WX    TMP DP  RH WIND       PRES   REMARKS
BRANDON        LGT RAIN  64  63  94 E3        29.84R
DAUPHIN        CLOUDY    66  64  94 N5        29.82S
ISLAND LAKE    MOSUNNY   72  61  68 S7        29.84S
PILOT MOUND      N/A     66  64  94 NE7         N/A
THE PAS        CLOUDY    61  55  82 N15       29.87R
THOMPSON       TSTM      55  55 100 NW10      29.81R FOG
WINNIPEG       LGT RAIN  68  64  88 SE6       29.80F
LYNN LAKE      CLOUDY    54  52  94 MISG      29.91R
CHURCHILL      CLOUDY    48  46  93 NW13      29.80R FOG
GILLAM         CLOUDY    68  63  83 SE3       29.78S
$$
                ***SASKATCHEWAN***

CITY           SKY/WX    TMP DP  RH WIND       PRES   REMARKS
ESTEVAN        CLOUDY   N/A N/A N/A NW5         N/A  FOG
KINDERSLEY     CLOUDY    55  54  94 N14       30.06R
LLOYDMINSTER   CLOUDY    52  50  93 N8        30.11R
PRINCE ALBERT  PTSUNNY   57  55  94 N7        30.00R
REGINA         PTSUNNY   59  55  88 N12       29.94R



USA.gov is the U.S. government's official web portal to all federal, state and local government web resources and services.